| time (UTC) | temp F | wind direction | speed MPH | gust MPH | rain 1hr in | rain 24hr in | rain mn in | humidity % | barometer mb |
| 20260509031017 | 49 | 215 | 2.0 | 6.0 | 0.00 | 0.00 | 0.00 | 56 | 1010.8 |
| 20260509030042 | 50 | 214 | 2.0 | 5.0 | 0.00 | 0.00 | 0.00 | 56 | 1010.8 |
| 20260509025018 | 50 | 214 | 3.0 | 5.0 | 0.00 | 0.00 | 0.00 | 56 | 1010.8 |
| 20260509024018 | 50 | 212 | 3.0 | 6.0 | 0.00 | 0.00 | 0.00 | 56 | 1010.8 |
| 20260509023018 | 50 | 211 | 2.0 | 4.0 | 0.00 | 0.00 | 0.00 | 55 | 1010.7 |
| 20260509022018 | 51 | 204 | 2.0 | 6.0 | 0.00 | 0.00 | 0.00 | 54 | 1010.7 |
| 20260509021019 | 51 | 227 | 2.0 | 4.0 | 0.00 | 0.00 | 0.00 | 53 | 1010.6 |
| 20260509020020 | 51 | 230 | 2.0 | 5.0 | 0.00 | 0.00 | 0.00 | 54 | 1010.6 |
| 20260509015019 | 51 | 217 | 1.0 | 4.0 | 0.00 | 0.00 | 0.00 | 54 | 1010.6 |
| 20260509014020 | 51 | 208 | 3.0 | 6.0 | 0.00 | 0.00 | 0.00 | 52 | 1010.4 |
| 20260509013039 | 51 | 208 | 2.0 | 5.0 | 0.00 | 0.00 | 0.00 | 52 | 1010.3 |
| 20260509012019 | 51 | 217 | 2.0 | 5.0 | 0.00 | 0.00 | 0.00 | 52 | 1010.2 |
| 20260509011019 | 51 | 225 | 3.0 | 8.0 | 0.00 | 0.00 | 0.00 | 52 | 1010.1 |
| 20260509010020 | 51 | 249 | 3.0 | 10.0 | 0.00 | 0.00 | 0.00 | 51 | 1010.0 |
| 20260509005020 | 51 | 240 | 3.0 | 6.0 | 0.00 | 0.00 | 0.00 | 51 | 1009.9 |
| 20260509004037 | 51 | 225 | 3.0 | 7.0 | 0.00 | 0.00 | 0.00 | 51 | 1009.7 |
| 20260509003020 | 51 | 213 | 3.0 | 8.0 | 0.00 | 0.00 | 0.00 | 51 | 1009.7 |
| 20260509002038 | 52 | 221 | 3.0 | 9.0 | 0.00 | 0.00 | 0.00 | 51 | 1009.6 |
| 20260509001018 | 52 | 210 | 3.0 | 7.0 | 0.00 | 0.00 | 0.00 | 49 | 1009.5 |
| 20260509000020 | 52 | 208 | 4.0 | 9.0 | 0.00 | 0.00 | 0.00 | 48 | 1009.4 |
| 20260508235019 | 52 | 205 | 3.0 | 8.0 | 0.00 | 0.00 | 0.00 | 47 | 1009.3 |
| 20260508234018 | 52 | 199 | 3.0 | 7.0 | 0.00 | 0.00 | 0.00 | 46 | 1009.2 |
| 20260508233021 | 52 | 217 | 2.0 | 6.0 | 0.00 | 0.00 | 0.00 | 46 | 1009.2 |
| 20260508232019 | 53 | 202 | 3.0 | 5.0 | 0.00 | 0.00 | 0.00 | 46 | 1009.1 |
| 20260508231020 | 54 | 216 | 2.0 | 5.0 | 0.00 | 0.00 | 0.00 | 44 | 1009.1 |
| 20260508230018 | 54 | 196 | 3.0 | 8.0 | 0.00 | 0.00 | 0.00 | 44 | 1009.1 |
| 20260508225020 | 53 | 243 | 3.0 | 8.0 | 0.00 | 0.00 | 0.00 | 45 | 1009.2 |
| 20260508224019 | 52 | 201 | 3.0 | 5.0 | 0.00 | 0.00 | 0.00 | 47 | 1009.2 |
| 20260508223039 | 52 | 217 | 3.0 | 6.0 | 0.00 | 0.00 | 0.00 | 47 | 1009.2 |
| 20260508222019 | 53 | 210 | 4.0 | 8.0 | 0.00 | 0.00 | 0.00 | 47 | 1009.1 |
| 20260508221037 | 53 | 249 | 3.0 | 8.0 | 0.00 | 0.00 | 0.00 | 46 | 1009.1 |
| 20260508220020 | 53 | 284 | 2.0 | 5.0 | 0.00 | 0.00 | 0.00 | 44 | 1009.0 |
| 20260508215040 | 52 | 184 | 3.0 | 7.0 | 0.00 | 0.00 | 0.00 | 48 | 1009.1 |
| 20260508214019 | 52 | 275 | 3.0 | 7.0 | 0.00 | 0.00 | 0.00 | 50 | 1009.3 |
| 20260508213017 | 52 | 213 | 2.0 | 6.0 | 0.00 | 0.00 | 0.00 | 51 | 1009.2 |
| 20260508212100 | 52 | 199 | 3.0 | 7.0 | 0.00 | 0.00 | 0.00 | 50 | 1009.1 |
| 20260508211017 | 52 | 199 | 4.0 | 7.0 | 0.00 | 0.00 | 0.00 | 49 | 1008.9 |
| 20260508210019 | 52 | 204 | 4.0 | 9.0 | 0.00 | 0.00 | 0.00 | 48 | 1008.8 |
| 20260508205021 | 52 | 195 | 4.0 | 7.0 | 0.00 | 0.00 | 0.00 | 46 | 1008.7 |
| 20260508204019 | 52 | 192 | 3.0 | 7.0 | 0.00 | 0.00 | 0.00 | 49 | 1008.7 |
| 20260508203018 | 52 | 201 | 4.0 | 7.0 | 0.00 | 0.00 | 0.00 | 51 | 1008.8 |
| 20260508202018 | 53 | 201 | 4.0 | 9.0 | 0.00 | 0.00 | 0.00 | 51 | 1008.9 |
| 20260508201018 | 53 | 208 | 3.0 | 9.0 | 0.00 | 0.00 | 0.00 | 50 | 1008.9 |
| 20260508200018 | 52 | 315 | 3.0 | 7.0 | 0.00 | 0.00 | 0.00 | 48 | 1008.8 |
| 20260508195039 | 51 | 320 | 4.0 | 8.0 | 0.00 | 0.00 | 0.00 | 49 | 1008.9 |
| 20260508194019 | 51 | 321 | 5.0 | 12.0 | 0.00 | 0.00 | 0.00 | 49 | 1009.0 |
| 20260508193019 | 52 | 312 | 5.0 | 14.0 | 0.00 | 0.00 | 0.00 | 47 | 1008.9 |
| 20260508192019 | 52 | 248 | 3.0 | 9.0 | 0.00 | 0.00 | 0.00 | 48 | 1008.9 |
| 20260508191019 | 52 | 221 | 4.0 | 8.0 | 0.00 | 0.00 | 0.00 | 47 | 1008.9 |
| 20260508190016 | 53 | 205 | 5.0 | 10.0 | 0.00 | 0.00 | 0.00 | 46 | 1008.9 |
| 20260508185020 | 52 | 321 | 4.0 | 9.0 | 0.00 | 0.00 | 0.00 | 48 | 1009.0 |
| 20260508184042 | 52 | 267 | 4.0 | 8.0 | 0.00 | 0.00 | 0.00 | 48 | 1009.1 |
| 20260508183017 | 51 | 300 | 6.0 | 11.0 | 0.00 | 0.00 | 0.00 | 49 | 1009.1 |
| 20260508182021 | 51 | 246 | 4.0 | 10.0 | 0.00 | 0.00 | 0.00 | 48 | 1009.2 |
| 20260508181038 | 51 | 280 | 4.0 | 11.0 | 0.00 | 0.00 | 0.00 | 48 | 1009.2 |
| 20260508180017 | 51 | 253 | 3.0 | 10.0 | 0.00 | 0.00 | 0.00 | 48 | 1009.2 |
| 20260508175018 | 51 | 303 | 4.0 | 12.0 | 0.00 | 0.00 | 0.00 | 46 | 1009.2 |
| 20260508174018 | 52 | 285 | 4.0 | 10.0 | 0.00 | 0.00 | 0.00 | 46 | 1009.2 |
| 20260508173018 | 50 | 262 | 4.0 | 8.0 | 0.00 | 0.00 | 0.00 | 48 | 1009.2 |
| 20260508172021 | 50 | 292 | 4.0 | 10.0 | 0.00 | 0.00 | 0.00 | 49 | 1009.3 |
| 20260508171040 | 50 | 267 | 4.0 | 10.0 | 0.00 | 0.00 | 0.00 | 50 | 1009.3 |
| 20260508170019 | 49 | 218 | 4.0 | 8.0 | 0.00 | 0.00 | 0.00 | 51 | 1009.3 |
| 20260508165038 | 49 | 306 | 3.0 | 7.0 | 0.00 | 0.00 | 0.00 | 51 | 1009.3 |
| 20260508164020 | 49 | 265 | 3.0 | 7.0 | 0.00 | 0.00 | 0.00 | 50 | 1009.4 |
| 20260508162019 | 49 | 224 | 2.0 | 6.0 | 0.00 | 0.00 | 0.00 | 50 | 1009.4 |
| 20260508161020 | 49 | 298 | 4.0 | 7.0 | 0.00 | 0.00 | 0.00 | 49 | 1009.4 |
| 20260508160021 | 49 | 307 | 3.0 | 8.0 | 0.00 | 0.00 | 0.00 | 49 | 1009.4 |
| 20260508155017 | 49 | 327 | 4.0 | 8.0 | 0.00 | 0.00 | 0.00 | 49 | 1009.4 |
| 20260508154020 | 50 | 257 | 2.0 | 8.0 | 0.00 | 0.00 | 0.00 | 48 | 1009.4 |
| 20260508153040 | 50 | 273 | 3.0 | 8.0 | 0.00 | 0.00 | 0.00 | 47 | 1009.5 |
| 20260508152017 | 50 | 307 | 5.0 | 9.0 | 0.00 | 0.00 | 0.00 | 49 | 1009.6 |
| 20260508151021 | 49 | 299 | 3.0 | 8.0 | 0.00 | 0.00 | 0.00 | 51 | 1009.7 |
| 20260508150019 | 48 | 270 | 3.0 | 9.0 | 0.00 | 0.00 | 0.00 | 54 | 1009.6 |
| 20260508145019 | 47 | 322 | 4.0 | 9.0 | 0.00 | 0.00 | 0.00 | 56 | 1009.6 |
| 20260508144021 | 48 | 292 | 3.0 | 8.0 | 0.00 | 0.00 | 0.00 | 58 | 1009.7 |
| 20260508143018 | 48 | 301 | 3.0 | 6.0 | 0.00 | 0.00 | 0.00 | 59 | 1009.7 |
| 20260508142018 | 48 | 298 | 4.0 | 10.0 | 0.00 | 0.00 | 0.00 | 59 | 1009.7 |
| 20260508141018 | 47 | 319 | 3.0 | 7.0 | 0.00 | 0.00 | 0.00 | 60 | 1009.8 |
| 20260508140018 | 46 | 301 | 2.0 | 6.0 | 0.00 | 0.00 | 0.00 | 62 | 1009.8 |
| 20260508135039 | 46 | 314 | 3.0 | 6.0 | 0.00 | 0.00 | 0.00 | 63 | 1009.7 |
| 20260508134022 | 46 | 322 | 4.0 | 8.0 | 0.00 | 0.00 | 0.00 | 63 | 1009.7 |
| 20260508133022 | 47 | 321 | 4.0 | 7.0 | 0.00 | 0.00 | 0.00 | 63 | 1009.7 |
| 20260508132108 | 47 | 312 | 3.0 | 7.0 | 0.00 | 0.00 | 0.00 | 64 | 1009.7 |
| 20260508131029 | 46 | 318 | 3.0 | 4.0 | 0.00 | 0.00 | 0.00 | 65 | 1009.6 |
| 20260508130042 | 46 | 324 | 3.0 | 9.0 | 0.00 | 0.00 | 0.00 | 65 | 1009.6 |
| 20260508125023 | 46 | 308 | 3.0 | 6.0 | 0.00 | 0.00 | 0.00 | 66 | 1009.6 |
| 20260508124023 | 46 | 327 | 3.0 | 7.0 | 0.00 | 0.00 | 0.00 | 67 | 1009.5 |
| 20260508123017 | 46 | 327 | 3.0 | 6.0 | 0.00 | 0.00 | 0.00 | 69 | 1009.5 |
| 20260508122109 | 46 | 260 | 2.0 | 4.0 | 0.00 | 0.00 | 0.00 | 64 | 1009.4 |
| 20260508121029 | 45 | 284 | 2.0 | 4.0 | 0.00 | 0.00 | 0.00 | 71 | 1009.5 |
| 20260508120029 | 45 | 203 | 1.0 | 3.0 | 0.00 | 0.00 | 0.00 | 74 | 1009.5 |
| 20260508115029 | 45 | 203 | 2.0 | 3.0 | 0.00 | 0.00 | 0.00 | 74 | 1009.5 |
| 20260508114029 | 44 | 219 | 2.0 | 3.0 | 0.00 | 0.00 | 0.00 | 74 | 1009.4 |
| 20260508113050 | 44 | 221 | 1.0 | 3.0 | 0.00 | 0.00 | 0.00 | 75 | 1009.3 |
| 20260508112031 | 43 | 209 | 2.0 | 5.0 | 0.00 | 0.00 | 0.00 | 76 | 1009.2 |
| 20260508111030 | 43 | 209 | 2.0 | 2.0 | 0.00 | 0.00 | 0.00 | 78 | 1009.2 |
| 20260508110032 | 43 | 234 | 1.0 | 2.0 | 0.00 | 0.00 | 0.00 | 78 | 1009.1 |
| 20260508105030 | 42 | 221 | 1.0 | 2.0 | 0.00 | 0.00 | 0.00 | 79 | 1009.0 |
| 20260508104031 | 42 | 213 | 1.0 | 2.0 | 0.00 | 0.00 | 0.00 | 80 | 1008.9 |
| 20260508103031 | 42 | 229 | 0.0 | 2.0 | 0.00 | 0.00 | 0.00 | 79 | 1008.8 |
| 20260508102051 | 42 | 289 | 1.0 | 1.0 | 0.00 | 0.00 | 0.00 | 80 | 1008.7 |
| 20260508101031 | 42 | 229 | 1.0 | 1.0 | 0.00 | 0.00 | 0.00 | 79 | 1008.7 |
| 20260508100031 | 42 | 219 | 1.0 | 1.0 | 0.00 | 0.00 | 0.00 | 80 | 1008.6 |
| 20260508095032 | 42 | 276 | 1.0 | 1.0 | 0.00 | 0.00 | 0.00 | 78 | 1008.5 |
| 20260508094031 | 42 | 200 | 1.0 | 2.0 | 0.00 | 0.00 | 0.00 | 78 | 1008.4 |
| 20260508093017 | 42 | 199 | 1.0 | 2.0 | 0.00 | 0.00 | 0.00 | 79 | 1008.4 |
| 20260508092032 | 42 | 225 | 1.0 | 1.0 | 0.00 | 0.00 | 0.00 | 78 | 1008.5 |
| 20260508091032 | 42 | 213 | 1.0 | 1.0 | 0.00 | 0.00 | 0.00 | 77 | 1008.5 |
| 20260508090017 | 42 | 227 | 1.0 | 1.0 | 0.00 | 0.00 | 0.00 | 74 | 1008.5 |
| 20260508085058 | 43 | 204 | 1.0 | 1.0 | 0.00 | 0.00 | 0.00 | 74 | 1008.5 |
| 20260508084017 | 43 | 301 | 1.0 | 2.0 | 0.00 | 0.00 | 0.00 | 74 | 1008.6 |
| 20260508083033 | 43 | 332 | 2.0 | 2.0 | 0.00 | 0.00 | 0.00 | 74 | 1008.6 |
| 20260508082018 | 44 | 343 | 2.0 | 3.0 | 0.00 | 0.00 | 0.00 | 73 | 1008.6 |
| 20260508081018 | 44 | 334 | 2.0 | 3.0 | 0.00 | 0.00 | 0.00 | 74 | 1008.7 |
| 20260508080039 | 44 | 218 | 1.0 | 2.0 | 0.00 | 0.00 | 0.00 | 73 | 1008.5 |
| 20260508075018 | 44 | 226 | 1.0 | 2.0 | 0.00 | 0.00 | 0.00 | 74 | 1008.3 |
| 20260508074020 | 44 | 199 | 1.0 | 1.0 | 0.00 | 0.00 | 0.00 | 74 | 1008.2 |
| 20260508073019 | 44 | 354 | 1.0 | 1.0 | 0.00 | 0.00 | 0.00 | 73 | 1008.2 |
| 20260508072019 | 44 | 281 | 1.0 | 1.0 | 0.00 | 0.00 | 0.00 | 73 | 1008.2 |
| 20260508071020 | 44 | 0.0 | 0.0 | 0.00 | 0.00 | 0.00 | 73 | 1008.2 | |
| 20260508070019 | 45 | 0.0 | 0.0 | 0.00 | 0.00 | 0.00 | 72 | 1008.3 | |
| 20260508065019 | 45 | 0.0 | 0.0 | 0.00 | 0.00 | 0.00 | 72 | 1008.3 | |
| 20260508064019 | 45 | 0.0 | 0.0 | 0.00 | 0.00 | 0.00 | 71 | 1008.3 | |
| 20260508063019 | 45 | 179 | 0.0 | 1.0 | 0.00 | 0.00 | 0.00 | 71 | 1008.3 |
| 20260508062019 | 45 | 0.0 | 0.0 | 0.00 | 0.00 | 0.00 | 70 | 1008.4 | |
| 20260508061100 | 45 | 190 | 0.0 | 1.0 | 0.00 | 0.00 | 0.00 | 70 | 1008.5 |
| 20260508060020 | 45 | 247 | 0.0 | 1.0 | 0.00 | 0.00 | 0.00 | 70 | 1008.6 |
| 20260508055020 | 46 | 0.0 | 0.0 | 0.00 | 0.00 | 0.00 | 67 | 1008.5 | |
| 20260508054020 | 46 | 264 | 0.0 | 2.0 | 0.00 | 0.00 | 0.00 | 66 | 1008.6 |
| 20260508053018 | 46 | 0 | 2.0 | 3.0 | 0.00 | 0.00 | 0.00 | 66 | 1008.6 |
| 20260508052018 | 46 | 336 | 2.0 | 4.0 | 0.00 | 0.00 | 0.00 | 63 | 1008.6 |
| 20260508051040 | 46 | 336 | 1.0 | 3.0 | 0.00 | 0.00 | 0.00 | 62 | 1008.6 |
| 20260508050019 | 46 | 344 | 1.0 | 4.0 | 0.00 | 0.00 | 0.00 | 62 | 1008.6 |
| 20260508045019 | 46 | 340 | 1.0 | 4.0 | 0.00 | 0.00 | 0.00 | 63 | 1008.7 |
| 20260508044019 | 46 | 346 | 2.0 | 3.0 | 0.00 | 0.00 | 0.00 | 63 | 1008.7 |
| 20260508043019 | 46 | 343 | 2.0 | 2.0 | 0.00 | 0.00 | 0.00 | 63 | 1008.7 |
| 20260508042019 | 47 | 335 | 1.0 | 3.0 | 0.00 | 0.00 | 0.00 | 63 | 1008.7 |
| 20260508041019 | 47 | 344 | 1.0 | 2.0 | 0.00 | 0.00 | 0.00 | 62 | 1008.6 |
| 20260508040017 | 46 | 324 | 2.0 | 4.0 | 0.00 | 0.00 | 0.00 | 65 | 1008.6 |
| 20260508035021 | 47 | 333 | 1.0 | 2.0 | 0.00 | 0.00 | 0.00 | 65 | 1008.6 |
| 20260508034019 | 47 | 346 | 1.0 | 2.0 | 0.00 | 0.00 | 0.00 | 62 | 1008.6 |
| 20260508033017 | 47 | 352 | 1.0 | 3.0 | 0.00 | 0.00 | 0.00 | 61 | 1008.6 |
| 20260508032041 | 47 | 347 | 2.0 | 3.0 | 0.00 | 0.00 | 0.00 | 60 | 1008.6 |